Regional Weather Roundup
Issued by NWS

Home | Current Version | Previous Version | Graphics & Text | Print | Product List | Glossary Off
Versions: 1 2 3 4 5 6 7 8 9 10 11 12 13 14 15 16 17 18 19 20 21 22 23 24 25 26 27 28 29 30 31 32 33 34 35 36 37 38 39 40 41 42 43 44 45 46 47 48 49 50

000
ASUS45 KPSR 231500
RWRAZ

PRELIMINARY ARIZONA REGIONAL HOURLY WEATHER ROUNDUP
NATIONAL WEATHER SERVICE PHOENIX AZ
800 AM MST WED APR 23 2014

NOTE: FAIR INDICATES FEW OR NO CLOUDS BELOW 12,000 FEET WITH NO
SIGNIFICANT WEATHER AND/OR OBSTRUCTIONS TO VISIBILITY.

AZZ001>003-036-231600-
NORTHWEST ARIZONA

CITY           SKY/WX    TMP DP  RH WIND       PRES   REMARKS
KINGMAN        MOSUNNY   57   7  13 N15       29.91R
$$

AZZ004>008-015-016-018-231600-
NORTH CENTRAL ARIZONA

CITY           SKY/WX    TMP DP  RH WIND       PRES   REMARKS
GRAND CANYON   CLOUDY    46   9  22 NW6       29.93R
WILLIAMS       PTSUNNY   46  14  27 CALM      30.01R
PRESCOTT       PTSUNNY   52  13  21 N7        29.91R
FLAGSTAFF      MOSUNNY   50  15  24 SW16      29.93R
PAYSON         SUNNY     59  25  27 S5        29.93S
PAGE           CLOUDY    54  20  26 W9        29.87R
$$

AZZ009>014-017-231600-
NORTHEAST ARIZONA

CITY           SKY/WX    TMP DP  RH WIND       PRES   REMARKS
WINSLOW        NOT AVBL
SAINT JOHNS    SUNNY     59  27  29 S10G20    29.91S
WINDOW ROCK    SUNNY     56  26  31 SW16G23   29.92S
SHOW LOW       SUNNY     52  27  37 SW22      29.96S
$$

AZZ023-231600-
GREATER PHOENIX AREA

CITY           SKY/WX    TMP DP  RH WIND       PRES   REMARKS
PHOENIX        MOSUNNY   72  19  13 S3        29.79R
GLENDALE       MOSUNNY   68  21  17 S12       29.81R
DEER VALLEY    SUNNY     66  19  16 SW7       29.81R
SCOTTSDALE     SUNNY     69  18  14 CALM      29.83R
MESA-GATEWAY   MOSUNNY   70  28  21 VRB7      29.83R
CHANDLER       MOSUNNY   70  30  23 VRB6      29.82R
$$

AZZ027-028-231600-
SOUTHWEST MARICOPA COUNTY AND PINAL COUNTY

CITY           SKY/WX    TMP DP  RH WIND       PRES   REMARKS
CASA GRANDE    SUNNY     68  30  24 CALM      29.83R
GILA BEND      SUNNY     70  28  21 W2        29.83R
$$

AZZ503-504-507>509-231600-
SOUTHEAST ARIZONA

CITY           SKY/WX    TMP DP  RH WIND       PRES   REMARKS
TUCSON         SUNNY     72  31  22 S9        29.89R
DAVIS-MONTHAN  SUNNY     70  32  24 SE2       29.87S
RYAN FIELD       N/A     72  34  25 E5        29.88R
NOGALES        SUNNY     66  30  26 S6        29.94R
SIERRA VISTA   MOSUNNY   66  25  20 SW10      29.96R
SAFFORD        SUNNY     67  25  20 E5        29.86R
$$

AZZ020-021-025-026-031-231600-
SOUTHWEST ARIZONA

CITY           SKY/WX    TMP DP  RH WIND       PRES   REMARKS
YUMA           MOSUNNY   73  17  12 N8        29.83R
$$

CAZ031-033-041-043-047-048-061-231600-
SOUTHERN CALIFORNIA

CITY           SKY/WX    TMP DP  RH WIND       PRES   REMARKS
DOWNTOWN L.A.  PTSUNNY   60  50  69 CALM      29.96S
L.A. AIRPORT   PTSUNNY   60  51  72 E6        29.96R
SAN DIEGO      PTSUNNY   62  49  62 CALM      29.98R
BURBANK        MOSUNNY   56  46  69 SE3       29.95R
ONTARIO        PTSUNNY   56  49  77 CALM      29.96R
RIVERSIDE      MOSUNNY   56  49  77 CALM      29.96R
PALM SPRINGS   MOSUNNY   66  42  41 NW22      29.88R
EL CENTRO NAS  MOSUNNY   69  45  41 NW15      29.85R
IMPERIAL       SUNNY     67  46  47 NW10      29.84R
BLYTHE         SUNNY     67  16  14 W3        29.84R
$$

NVZ020-UTZ003-231600-
SOUTHERN NEVADA-UTAH

CITY           SKY/WX    TMP DP  RH WIND       PRES   REMARKS
LAS VEGAS      NOT AVBL
SALT LAKE CITY MOSUNNY   43  26  51 NW14      30.00R
$$

NMZ009-TXZ055-231600-
NEW MEXICO-WEST TEXAS

CITY           SKY/WX    TMP DP  RH WIND       PRES   REMARKS
ALBUQUERQUE    MOSUNNY   64  27  24 SW14      29.89S
EL PASO        PTSUNNY   73  24  16 W14       29.90R
$$


........................KEY........................
SKY/WX - SKY CONDITION/WEATHER
TMP    - TEMPERATURE IN FAHRENHEIT
DP     - DEW POINT IN FAHRENHEIT
RH     - RELATIVE HUMIDITY IN PERCENT
WIND   - DIRECTION AND SPEED IN MILES PER HOUR (MPH)
VRB    - VARIABLE WIND DIRECTION
PRES   - MEAN SEA LEVEL PRESSURE IN INCHES OF MERCURY
         F - FALLING PRESSURE   R - RISING PRESSURE
         S - STEADY PRESSURE
VSB    - VISIBILITY IN MILES
HX     - HEAT INDEX IN FAHRENHEIT
WCI    - WIND CHILL INDEX IN FAHRENHEIT
TC     - TEMPERATURE IN CELSIUS WHICH IS ALSO KNOWN AS
         TEMPERATURE IN CENTIGRADE
AFB    - AIR FORCE BASE
         LUKE AFB IS LUKE AIR FORCE BASE
         DAVIS-MONTHAN IS DAVIS-MONTHAN AIR FORCE BASE
NAS    - NAVAL AIR STATION
         EL CENTRO NAS IS EL CENTRO NAVAL AIR STATION
N/A    - NOT AVAILABLE



USA.gov is the U.S. government's official web portal to all federal, state and local government web resources and services.